Regional Weather Roundup
Issued by NWS

Home | Current Version | Previous Version | Text Only | Print | Product List | Glossary On
Versions: 1 2 3 4 5 6 7 8 9 10 11 12 13 14 15 16 17 18 19 20 21 22 23 24 25 26 27 28 29 30 31 32 33 34 35 36 37 38 39 40 41 42 43 44 45 46 47 48 49 50
000
ASPQ40 PGUM 242112
RWRPQ
WEATHER ROUNDUP FOR THE MARIANAS AND MICRONESIA
NATIONAL WEATHER SERVICE TIYAN GU
700 AM CHST SAT NOV 25 2017

GUZ001>004-242200-
MARIANA ISLANDS-

CITY           SKY/WX    TMP DP  RH WIND       PRES   REMARKS
GUAM AIRPORT   CLEAR     81  73  78 NE14      29.90R
ANDERSEN AFB   PTCLDY    81  72  74 E20       29.91R
ROTA AIRPORT   PTCLDY    79  70  73 E15G21    29.91R
TINIAN AP      PTCLDY    81  73  78 NE14      29.90R
SAIPAN AP      PTCLDY    81  73  78 NE17      29.91

$$

PMZ161-242200-
REPUBLIC OF PALAU-

CITY           SKY/WX    TMP DP  RH WIND       PRES   REMARKS
KOROR AP       MOCLDY    82  75  78 E13G21    29.73R
KOROR WSO      CLOUDY    82  75  78 E7        29.75R

$$

PMZ171>174-242200-
FEDERATED STATES OF MICRONESIA-

CITY           SKY/WX    TMP DP  RH WIND       PRES   REMARKS
YAP AIRPORT    MOCLDY    82  77  83 NE8       29.75R HX  91
CHUUK AP       CLOUDY    84  77  79 NE8       29.79R HX  94
POHNPEI AP     PTSUNNY   84  73  70 NE9       29.78R HX  91
POHNPEI WSO    MOSUNNY   79  75  89 SE3       29.82R
KOSRAE AP      CLOUDY    84  77  79 VRB3      29.78  HX  94

$$

PMZ181-242200-
REPUBLIC OF THE MARSHALL ISLANDS-

CITY           SKY/WX    TMP DP  RH WIND       PRES   REMARKS
KWAJALEIN AP   LGT RAIN  79  75  89 SE26G32   29.79R
MAJURO AP      PTSUNNY   81  77  89 SE9         N/A
MAJURO WSO     PTSUNNY   84  73  70 SE6       29.77R HX  91

$$




USA.gov is the U.S. government's official web portal to all federal, state and local government web resources and services.